QPF
0.00 0.00 0.00 0.00 0.00 0.00 0.00 0.00 0.00 0.00 0.00 0.00 0.00 0.00 0.00 0.00 0.00 0.00 0.00 0.00 0.00 0.00 0.00 0.00 0.00 0.00 0.00 0.00 0.00 0.00 0.00 0.00 0.00 0.00 0.00 0.00 0.00 0.00 0.00 0.00 0.00 0.00 0.00 0.00 0.00
0.00 0.00 0.00 0.00 0.00 0.00 0.00 0.00 0.00 0.00 0.00 0.00 0.00 0.00 0.00 0.00 0.00 0.00 0.00 0.00 0.00 0.00 0.00 0.00 0.00 0.00 0.00 0.00 0.00 0.00 0.00 0.00 0.00 0.00 0.00 0.00 0.00 0.00 0.00 0.00 0.00 0.00 0.00 0.00 0.00
0.00 0.00 0.00 0.00 0.00 0.00 0.00 0.00 0.00 0.00 0.00 0.00 0.00 0.00 0.00 0.00 0.00 0.00 0.00 0.00 0.00 0.00 0.00 0.00 0.00 0.00 0.00 0.00 0.00 0.00 0.00 0.00 0.00 0.00 0.00 0.00 0.00 0.00 0.00 0.00 0.00 0.00 0.00 0.00 0.00
0.00 0.00 0.00 0.00 0.00 0.00 0.00 0.00 0.00 0.00 0.00 0.00 0.00 0.00 0.00 0.00 0.00 0.00 0.00 0.00 0.00 0.00 0.00 0.00 0.00 0.00 0.00 0.00 0.00 0.00 0.00 0.00 0.00 0.00 0.00 0.00 0.00 0.00 0.00 0.00 0.00 0.00 0.00 0.00 0.00
0.00 0.00 0.00 0.00 0.00 0.00 0.00 0.00 0.00 0.00 0.00 0.00 0.00 0.00 0.00 0.00 0.00 0.00 0.00 0.00 0.00 0.00 0.00 0.00 0.00 0.00 0.00 0.00 0.00 0.00 0.00 0.00 0.00 0.00 0.00 0.00 0.00 0.00 0.00 0.00 0.00 0.00 0.00 0.00 0.00
0.00 0.00 0.00 0.00 0.00 0.00 0.00 0.00 0.00 0.00 0.00 0.00 0.00 0.00 0.00 0.00 0.00 0.00 0.00 0.00 0.00 0.00 0.00 0.00 0.00 0.00 0.00 0.00 0.00 0.00 0.00 0.00 0.00 0.00 0.00 0.00 0.00 0.00 0.00 0.00 0.00 0.00 0.00 0.00 0.00
0.00 0.00 0.00 0.00 0.00 0.00 0.00 0.00 0.00 0.00 0.00 0.00 0.00 0.00 0.00 0.00 0.00 0.00 0.00 0.00 0.00 0.00 0.00 0.00 0.00 0.00 0.00 0.00 0.00 0.00 0.00 0.00 0.00 0.00 0.00 0.00 0.00 0.00 0.00 0.00 0.00 0.00 0.00 0.00 0.00
0.00 0.00 0.00 0.00 0.00 0.00 0.00 0.00 0.00 0.00 0.00 0.00 0.00 0.00 0.00 0.00 0.00 0.00 0.00 0.00 0.00 0.00 0.00 0.00 0.00 0.00 0.00 0.00 0.00 0.00 0.00 0.00 0.00 0.00 0.00 0.00 0.00 0.00 0.00 0.00 0.00 0.00 0.00 0.00 0.00
0.00 0.00 0.00 0.00 0.00 0.00 0.00 0.00 0.00 0.00 0.00 0.00 0.00 0.00 0.00 0.00 0.00 0.00 0.00 0.00 0.00 0.00 0.00 0.00 0.00 0.00 0.00 0.00 0.00 0.00 0.00 0.00 0.00 0.00 0.00 0.00 0.00 0.00 0.00 0.00 0.00 0.00 0.00 0.00 0.00
0.00 0.00 0.00 0.00 0.00 0.00 0.00 0.00 0.00 0.00 0.00 0.00 0.00 0.00 0.00 0.00 0.00 0.00 0.00 0.00 0.00 0.00 0.00 0.00 0.00 0.00 0.00 0.00 0.00 0.00 0.00 0.00 0.00 0.00 0.00 0.00 0.00 0.00 0.00 0.00 0.00 0.00 0.00 0.00 0.00
0.00 0.00 0.00 0.00 0.00 0.00 0.00 0.00 0.00 0.00 0.00 0.00 0.00 0.00 0.00 0.00 0.00 0.00 0.00 0.00 0.00 0.00 0.00 0.00 0.00 0.00 0.00 0.00 0.00 0.00 0.00 0.00 0.00 0.00 0.00 0.00 0.00 0.00 0.00 0.00 0.00 0.00 0.00 0.00 0.00
0.00 0.00 0.00 0.00 0.00 0.00 0.00 0.00 0.00 0.00 0.00 0.00 0.00 0.00 0.00 0.00 0.00 0.00 0.00 0.00 0.00 0.00 0.00 0.00 0.00 0.00 0.00 0.00 0.00 0.00 0.00 0.00 0.00 0.00 0.00 0.00 0.00 0.00 0.00 0.00 0.00 0.00 0.00 0.00 0.00
0.00 0.00 0.00 0.00 0.00 0.00 0.00 0.00 0.00 0.00 0.00 0.00 0.00 0.00 0.00 0.00 0.00 0.00 0.00 0.00 0.00 0.00 0.00 0.00 0.00 0.00 0.00 0.00 0.00 0.00 0.00 0.00 0.00 0.00 0.00 0.00 0.00 0.00 0.00 0.00 0.00 0.00 0.00 0.00 0.00
0.00 0.00 0.00 0.00 0.00 0.00 0.00 0.00 0.00 0.00 0.00 0.00 0.00 0.00 0.00 0.00 0.00 0.00 0.00 0.00 0.00 0.00 0.00 0.00 0.00 0.00 0.00 0.00 0.00 0.00 0.00 0.00 0.00 0.00 0.00 0.00 0.00 0.00 0.00 0.00 0.00 0.00 0.00 0.00 0.00
0.00 0.00 0.00 0.00 0.00 0.00 0.00 0.00 0.00 0.00 0.01 0.00 0.00 0.00 0.00 0.00 0.00 0.00 0.00 0.00 0.00 0.00 0.00 0.00 0.00 0.00 0.00 0.00 0.00 0.00 0.00 0.00 0.00 0.00 0.00 0.00 0.00 0.00 0.00 0.00 0.00 0.00 0.00 0.00 0.00
0.00 0.00 0.00 0.00 0.00 0.00 0.00 0.00 0.01 0.05 0.06 0.00 0.00 0.00 0.01 0.01 0.00 0.00 0.00 0.00 0.00 0.00 0.00 0.00 0.00 0.00 0.00 0.00 0.00 0.00 0.00 0.00 0.00 0.00 0.00 0.00 0.00 0.00 0.00 0.00 0.00 0.00 0.00 0.00 0.00
0.00 0.00 0.00 0.00 0.00 0.00 0.00 0.00 0.05 0.13 0.03 0.01 0.00 0.00 0.00 0.00 0.00 0.00 0.00 0.00 0.00 0.01 0.00 0.00 0.00 0.00 0.00 0.00 0.00 0.00 0.00 0.00 0.00 0.00 0.00 0.00 0.00 0.00 0.00 0.00 0.00 0.00 0.00 0.00 0.00
0.00 0.00 0.00 0.00 0.00 0.00 0.01 0.04 0.14 0.13 0.01 0.00 0.00 0.00 0.00 0.00 0.00 0.00 0.00 0.00 0.00 0.01 0.03 0.00 0.00 0.00 0.00 0.00 0.00 0.00 0.00 0.00 0.00 0.00 0.00 0.00 0.00 0.00 0.00 0.00 0.00 0.00 0.00 0.00 0.00
0.00 0.00 0.00 0.00 0.00 0.00 0.03 0.10 0.26 0.04 0.00 0.00 0.00 0.01 0.01 0.01 0.00 0.00 0.00 0.00 0.00 0.01 0.06 0.04 0.01 0.00 0.00 0.00 0.00 0.00 0.00 0.00 0.00 0.00 0.00 0.00 0.00 0.00 0.00 0.00 0.00 0.00 0.00 0.00 0.00
0.00 0.00 0.00 0.00 0.00 0.01 0.06 0.05 0.01 0.00 0.00 0.00 0.03 0.05 0.04 0.00 0.02 0.01 0.01 0.01 0.00 0.00 0.00 0.00 0.03 0.00 0.00 0.00 0.00 0.00 0.00 0.00 0.00 0.00 0.00 0.00 0.00 0.00 0.00 0.00 0.00 0.00 0.00 0.00 0.00
0.00 0.00 0.00 0.00 0.00 0.03 0.04 0.02 0.00 0.00 0.00 0.01 0.03 0.03 0.03 0.02 0.00 0.01 0.01 0.01 0.01 0.00 0.00 0.00 0.03 0.00 0.00 0.00 0.00 0.00 0.00 0.00 0.00 0.00 0.00 0.00 0.00 0.00 0.00 0.00 0.00 0.00 0.00 0.00 0.00
0.00 0.00 0.00 0.00 0.01 0.03 0.01 0.00 0.00 0.00 0.00 0.00 0.00 0.03 0.06 0.05 0.03 0.00 0.01 0.04 0.00 0.00 0.00 0.00 0.03 0.01 0.01 0.00 0.00 0.00 0.00 0.00 0.00 0.00 0.00 0.00 0.00 0.00 0.00 0.00 0.00 0.00 0.00 0.00 0.00
0.00 0.00 0.00 0.00 0.01 0.01 0.00 0.00 0.00 0.00 0.00 0.00 0.00 0.01 0.02 0.02 0.09 0.09 0.13 0.05 0.00 0.00 0.03 0.04 0.03 0.02 0.07 0.01 0.00 0.00 0.00 0.00 0.00 0.00 0.00 0.00 0.00 0.00 0.00 0.00 0.00 0.00 0.00 0.00 0.00
0.00 0.00 0.00 0.00 0.00 0.00 0.00 0.00 0.00 0.00 0.00 0.00 0.00 0.01 0.03 0.04 0.04 0.07 0.14 0.06 0.01 0.00 0.01 0.02 0.01 0.01 0.13 0.04 0.01 0.00 0.00 0.00 0.00 0.00 0.00 0.00 0.00 0.00 0.00 0.00 0.00 0.00 0.00 0.00 0.00
0.00 0.00 0.00 0.00 0.00 0.00 0.00 0.01 0.04 0.03 0.00 0.00 0.01 0.00 0.01 0.01 0.00 0.04 0.06 0.05 0.04 0.01 0.01 0.04 0.02 0.01 0.04 0.14 0.12 0.02 0.00 0.00 0.00 0.00 0.00 0.00 0.00 0.00 0.00 0.00 0.00 0.00 0.00 0.00 0.00
0.00 0.00 0.00 0.00 0.00 0.00 0.01 0.02 0.01 0.01 0.01 0.01 0.04 0.02 0.01 0.02 0.03 0.04 0.02 0.02 0.03 0.01 0.04 0.04 0.02 0.02 0.01 0.09 0.10 0.05 0.00 0.00 0.00 0.00 0.00 0.00 0.00 0.00 0.00 0.00 0.00 0.00 0.00 0.00 0.00
0.00 0.00 0.00 0.00 0.00 0.01 0.01 0.00 0.01 0.01 0.00 0.02 0.02 0.04 0.04 0.05 0.02 0.00 0.00 0.00 0.00 0.00 0.01 0.03 0.06 0.08 0.01 0.07 0.12 0.03 0.00 0.00 0.00 0.00 0.00 0.00 0.00 0.00 0.00 0.00 0.00 0.00 0.00 0.00 0.00
MSLP
1020.60 1020.28 1020.00 1019.65 1019.34 1019.02 1018.79 1018.47 1018.15 1017.95 1017.64 1017.00 1016.46 1015.88 1015.51 1014.98 1014.41 1012.92 1011.13 1008.78 1008.53 1008.92 1009.21 1008.42 1008.18 1007.61 1007.29 1007.13 1006.77 1006.57 1006.10 1004.18 1002.67 1001.25 999.96 999.20 998.77 998.28 998.61 998.47 998.58 999.15 999.21 999.59 999.72
1020.64 1020.28 1020.00 1019.69 1019.30 1018.96 1018.66 1018.36 1018.15 1017.59 1017.07 1016.66 1016.16 1015.65 1015.25 1014.71 1013.76 1011.28 1008.63 1008.24 1008.28 1008.65 1008.68 1008.01 1007.17 1007.31 1006.85 1006.56 1006.50 1006.04 1004.89 1003.32 1002.32 1001.05 999.89 999.19 998.72 998.75 998.98 998.93 999.15 999.18 999.28 999.38 999.24
1020.58 1020.21 1019.87 1019.55 1019.22 1018.89 1018.57 1018.17 1017.61 1017.19 1017.01 1016.62 1016.45 1016.16 1015.43 1014.70 1012.28 1007.69 1007.78 1007.27 1007.81 1008.02 1007.99 1007.47 1006.95 1006.30 1006.08 1005.73 1005.38 1004.91 1003.47 1003.07 1001.84 1000.92 1000.00 999.31 998.97 998.87 998.70 998.85 998.94 999.18 999.26 999.05 999.17
1020.53 1020.11 1019.69 1019.26 1018.87 1018.52 1018.19 1017.74 1017.34 1017.00 1016.62 1016.38 1016.32 1015.70 1015.12 1014.66 1010.39 1007.40 1007.76 1007.75 1008.08 1008.05 1007.99 1007.63 1007.14 1006.03 1005.20 1004.71 1004.56 1003.89 1002.78 1002.48 1001.63 1000.82 1000.11 999.44 999.19 998.84 998.80 998.50 998.53 998.77 998.53 998.87 998.98
1020.59 1020.08 1019.57 1019.05 1018.58 1018.13 1017.69 1017.32 1017.01 1016.70 1016.44 1016.22 1016.04 1015.52 1014.81 1012.14 1008.76 1007.00 1007.55 1007.61 1007.68 1007.88 1007.49 1007.17 1006.64 1005.89 1004.32 1004.04 1003.91 1002.35 1002.05 1001.79 1000.84 1000.34 999.88 999.48 998.91 998.75 998.38 998.49 998.29 998.16 998.32 998.47 998.58
1020.59 1020.16 1019.69 1019.17 1018.62 1018.02 1017.43 1016.87 1016.44 1016.18 1016.18 1016.03 1015.64 1015.54 1014.71 1011.37 1008.15 1006.81 1006.48 1006.76 1006.52 1006.64 1006.31 1005.92 1005.52 1005.37 1004.22 1003.34 1002.75 1002.12 1001.68 1000.86 1000.22 999.66 999.20 998.84 998.20 998.54 998.16 998.18 997.92 997.96 997.91 998.01 998.00
1020.48 1019.99 1019.49 1018.98 1018.47 1017.91 1017.29 1016.63 1016.01 1015.55 1015.24 1015.12 1015.22 1015.08 1013.26 1010.07 1008.36 1007.41 1007.33 1006.71 1006.63 1006.25 1005.62 1004.90 1004.56 1004.67 1004.00 1002.96 1002.32 1001.93 1000.98 1000.02 999.08 999.18 998.34 998.78 997.36 997.30 997.76 997.85 997.49 997.54 997.41 997.26 997.37
1020.39 1019.94 1019.41 1018.78 1018.09 1017.37 1016.64 1015.91 1015.24 1014.99 1014.65 1014.31 1014.48 1014.13 1011.07 1008.47 1007.65 1007.20 1007.18 1006.64 1006.57 1006.22 1005.80 1005.45 1004.83 1004.10 1003.21 1003.10 1002.46 1001.38 1000.93 998.94 998.53 998.93 997.77 998.92 996.46 997.02 997.33 996.97 996.90 996.90 996.70 996.46 996.48
1020.40 1019.91 1019.35 1018.73 1018.08 1017.36 1016.59 1015.57 1014.46 1013.85 1013.95 1013.85 1013.66 1012.55 1009.04 1006.60 1006.63 1006.51 1006.43 1005.85 1005.46 1005.34 1005.35 1005.55 1005.39 1004.57 1003.84 1002.67 1002.02 1000.78 999.25 998.60 997.82 998.10 998.06 997.73 996.64 996.31 996.73 996.53 996.12 996.14 996.28 996.10 995.87
1020.30 1019.75 1019.15 1018.41 1017.64 1016.81 1015.95 1014.41 1012.28 1013.23 1012.82 1012.31 1011.82 1010.91 1007.67 1006.18 1005.25 1005.16 1005.24 1005.24 1005.28 1005.30 1004.94 1004.79 1004.92 1004.55 1003.75 1001.96 999.29 999.28 999.30 997.49 997.15 997.47 997.11 996.69 996.05 995.38 995.55 995.49 995.07 995.03 995.13 995.36 995.49
1020.06 1019.45 1018.79 1018.07 1017.32 1016.53 1015.71 1013.31 1010.67 1011.01 1011.19 1009.96 1008.46 1007.61 1005.84 1005.61 1005.15 1004.99 1004.74 1004.97 1004.94 1004.86 1004.08 1003.98 1004.18 1002.09 999.43 1000.28 999.73 999.78 998.47 997.30 996.82 996.57 996.60 996.20 995.70 994.59 994.72 994.52 994.17 994.18 994.33 994.56 994.96
1019.91 1019.30 1018.64 1017.81 1016.90 1015.96 1015.60 1013.01 1011.56 1011.60 1009.89 1009.07 1007.71 1006.37 1005.92 1005.83 1004.93 1004.60 1004.84 1004.75 1004.59 1004.07 1003.84 1003.66 1001.40 998.83 1001.97 1000.79 1000.35 999.37 997.99 996.99 996.62 996.31 996.12 995.36 994.52 993.98 993.81 993.56 993.54 993.41 993.51 993.88 994.39
1019.77 1018.96 1018.19 1017.37 1016.61 1015.22 1013.79 1012.04 1011.80 1011.34 1009.96 1007.29 1005.33 1005.15 1004.63 1004.57 1003.63 1003.73 1004.26 1004.21 1004.05 1003.57 1003.00 1002.25 999.05 1001.79 1000.84 1000.23 999.43 998.24 997.23 997.30 996.58 996.92 996.00 995.35 994.44 993.57 993.09 992.89 992.82 992.69 993.05 993.37 993.79
1019.43 1018.58 1017.82 1016.91 1016.15 1014.04 1012.58 1012.06 1011.53 1011.42 1009.87 1004.46 1003.15 1002.47 1002.96 1003.04 1002.63 1002.58 1002.77 1003.43 1003.39 1003.07 1002.95 1001.64 1000.97 1000.15 999.71 998.93 998.37 997.13 997.16 997.53 996.88 996.81 995.00 995.97 993.67 992.61 992.77 992.29 992.08 992.07 992.29 992.43 992.77
1019.22 1018.37 1017.45 1017.24 1015.98 1013.55 1013.04 1012.32 1011.73 1012.01 1009.03 1004.19 1004.18 1003.22 1003.73 1003.30 1002.39 1001.76 1002.26 1002.38 1002.53 1002.62 1003.25 1000.21 1000.23 999.73 998.86 996.82 998.39 995.47 997.96 996.92 996.46 995.95 995.84 995.40 994.43 989.70 992.41 991.55 991.40 991.45 991.35 991.45 991.75
1019.11 1018.33 1017.53 1014.99 1015.18 1013.56 1012.72 1012.66 1012.72 1012.49 1008.99 1006.90 1006.15 1005.62 1004.72 1004.12 1003.69 1003.40 1001.90 1001.99 1002.02 1002.25 1002.07 1000.63 1000.43 999.57 998.16 997.91 997.67 997.24 997.12 996.94 996.32 995.69 994.56 993.64 994.11 989.90 991.68 991.12 990.75 990.59 990.32 990.26 990.67
1018.90 1018.19 1017.60 1016.12 1014.44 1014.02 1013.26 1012.83 1012.99 1011.42 1009.21 1007.37 1005.70 1004.98 1004.47 1004.30 1003.72 1003.60 1002.25 1001.91 1002.27 1002.37 1001.34 1000.59 1000.19 999.45 998.67 997.50 997.12 996.87 996.49 996.03 995.73 994.49 992.34 993.52 992.75 990.44 990.82 990.42 990.04 989.61 989.49 989.58 990.12
1018.34 1017.69 1016.27 1014.76 1014.24 1014.10 1013.76 1013.72 1012.68 1011.59 1008.66 1007.29 1006.50 1005.68 1005.01 1004.40 1003.56 1002.64 1002.97 1002.52 1002.02 1002.03 1002.15 1001.59 1000.08 998.73 998.14 996.89 996.21 995.86 995.44 994.35 993.38 992.78 992.36 992.74 990.72 989.55 989.25 989.27 988.90 988.93 988.88 989.33 989.97
1017.85 1015.53 1015.03 1014.30 1014.37 1014.34 1013.88 1013.05 1012.72 1010.43 1008.93 1007.79 1006.95 1007.13 1006.93 1006.44 1005.69 1003.68 1003.18 1002.81 1002.29 1002.92 1003.22 1002.27 1000.43 998.76 998.45 997.33 996.48 994.96 994.62 993.83 993.62 992.76 992.00 990.13 989.19 988.29 988.14 987.95 987.99 988.42 988.96 989.69 990.84
1017.99 1015.63 1013.93 1014.28 1014.47 1014.55 1014.25 1012.48 1010.69 1009.27 1008.57 1007.98 1007.77 1008.42 1007.72 1006.47 1006.20 1005.95 1004.86 1004.98 1003.92 1003.65 1004.12 1003.38 1002.20 1000.16 998.12 996.52 995.73 994.66 993.98 993.64 992.83 992.04 990.58 989.78 988.37 986.52 986.46 986.87 987.04 987.81 988.84 989.99 991.27
1016.95 1014.18 1013.53 1014.04 1014.18 1014.11 1013.72 1012.07 1010.11 1009.05 1008.37 1008.27 1007.99 1008.28 1008.52 1007.65 1006.93 1006.38 1005.75 1005.54 1004.47 1003.94 1003.92 1003.96 1003.51 1000.15 999.22 995.80 995.20 994.64 993.12 992.65 992.56 991.74 990.47 989.18 987.28 985.60 985.69 985.95 986.47 987.47 988.57 990.00 991.42
1016.09 1013.49 1013.13 1013.33 1014.08 1013.92 1013.23 1012.02 1010.63 1009.30 1008.06 1007.86 1008.05 1008.10 1008.38 1008.57 1007.56 1006.47 1005.74 1005.55 1005.18 1004.91 1004.68 1004.45 1003.95 1001.22 999.41 996.88 995.90 994.66 993.16 992.46 991.34 990.89 990.35 989.30 987.23 985.91 985.62 985.87 986.26 986.96 988.18 989.76 991.32
1016.18 1013.55 1013.33 1013.17 1013.46 1013.53 1013.25 1012.06 1010.57 1009.54 1008.62 1008.54 1007.85 1007.80 1008.29 1008.35 1008.58 1008.21 1007.65 1007.19 1006.22 1006.02 1005.60 1006.00 1004.13 1002.23 1000.27 998.64 996.25 995.29 993.34 992.52 991.87 991.18 989.94 988.86 987.17 986.13 986.02 986.08 986.21 986.85 988.25 989.85 991.31
1016.66 1014.63 1013.39 1013.15 1013.29 1013.75 1013.14 1012.39 1011.33 1010.51 1009.74 1008.90 1008.30 1007.78 1008.18 1008.42 1007.10 1006.79 1007.68 1007.02 1006.29 1006.27 1006.28 1006.82 1005.82 1003.95 1001.55 999.56 999.91 996.62 994.15 992.43 991.44 990.10 989.12 988.01 987.08 986.54 986.33 986.00 986.50 987.19 988.63 990.01 991.32
1016.97 1015.52 1014.36 1013.98 1013.79 1013.65 1013.45 1012.59 1011.54 1010.40 1010.07 1009.55 1009.05 1008.16 1007.95 1007.44 1006.49 1006.28 1006.43 1006.04 1005.86 1006.33 1006.11 1006.90 1006.02 1004.59 1002.55 1001.64 1001.44 999.90 996.30 992.31 990.09 989.24 988.82 987.56 986.65 986.64 986.66 986.56 987.49 988.36 989.20 990.36 991.40
1017.69 1016.98 1015.97 1015.49 1014.08 1013.29 1013.32 1012.52 1011.91 1010.89 1010.72 1009.75 1009.45 1008.92 1008.18 1007.69 1007.13 1006.08 1005.86 1005.32 1005.05 1005.49 1006.32 1006.35 1005.53 1003.76 1002.04 1001.06 1001.20 999.83 996.16 992.34 989.45 988.81 988.59 987.72 986.32 986.76 986.81 987.63 988.40 989.14 989.62 990.52 991.43
1018.81 1018.21 1017.53 1016.00 1014.18 1013.35 1013.35 1013.04 1012.50 1011.88 1010.68 1009.93 1009.27 1009.19 1008.10 1007.53 1006.87 1005.95 1005.51 1005.09 1004.46 1004.14 1004.40 1005.04 1004.67 1003.47 1001.28 1000.79 1001.06 998.56 993.87 991.76 988.76 988.01 987.66 987.57 987.01 987.08 988.13 988.31 988.70 989.13 989.85 990.58 991.43
Thickness
5614 5617 5619 5622 5626 5629 5633 5638 5641 5643 5648 5656 5663 5671 5677 5685 5692 5705 5720 5745 5747 5749 5748 5754 5754 5759 5762 5756 5765 5765 5730 5737 5761 5778 5796 5823 5816 5840 5843 5827 5835 5831 5830 5836 5845
5609 5611 5613 5614 5617 5621 5625 5628 5632 5638 5644 5649 5655 5663 5669 5676 5686 5704 5739 5742 5743 5740 5738 5740 5743 5746 5740 5745 5748 5738 5735 5751 5781 5794 5798 5814 5818 5819 5813 5811 5811 5818 5830 5838 5840
5604 5606 5608 5609 5611 5614 5617 5621 5627 5631 5634 5640 5643 5647 5656 5664 5685 5722 5730 5739 5736 5736 5736 5740 5744 5744 5733 5744 5744 5743 5738 5761 5777 5793 5805 5804 5805 5816 5807 5796 5808 5797 5813 5825 5824
5599 5600 5603 5605 5607 5609 5612 5616 5620 5624 5628 5631 5632 5640 5647 5653 5678 5715 5716 5723 5725 5727 5724 5723 5725 5726 5728 5730 5747 5731 5757 5762 5773 5787 5791 5791 5803 5797 5802 5805 5822 5822 5825 5820 5817
5592 5594 5597 5599 5602 5604 5607 5610 5612 5615 5618 5621 5624 5631 5639 5661 5683 5706 5707 5710 5714 5714 5713 5712 5710 5717 5719 5733 5739 5743 5753 5762 5775 5781 5787 5794 5788 5788 5796 5815 5822 5821 5818 5812 5811
5585 5586 5588 5590 5592 5596 5599 5602 5605 5607 5608 5610 5615 5618 5626 5646 5687 5699 5702 5703 5709 5709 5711 5714 5712 5719 5721 5728 5731 5752 5751 5758 5770 5775 5783 5780 5785 5787 5795 5808 5806 5808 5807 5810 5810
5577 5578 5580 5582 5584 5587 5590 5594 5597 5600 5603 5604 5605 5607 5623 5653 5672 5681 5680 5693 5696 5699 5699 5713 5717 5707 5720 5715 5742 5740 5733 5751 5763 5769 5771 5781 5766 5773 5794 5799 5795 5796 5801 5805 5806
5568 5569 5571 5573 5576 5579 5582 5586 5591 5592 5594 5597 5595 5599 5623 5654 5662 5669 5671 5677 5684 5691 5694 5701 5706 5705 5709 5722 5717 5719 5724 5720 5754 5759 5777 5765 5741 5778 5795 5792 5785 5790 5796 5801 5805
5560 5560 5561 5562 5564 5567 5570 5575 5582 5586 5584 5585 5588 5596 5622 5655 5650 5659 5662 5664 5675 5681 5686 5688 5684 5685 5692 5692 5691 5710 5702 5718 5744 5768 5758 5756 5744 5782 5789 5784 5782 5786 5787 5794 5800
5551 5551 5552 5553 5555 5557 5560 5569 5583 5574 5577 5581 5584 5591 5617 5628 5645 5652 5657 5658 5656 5660 5665 5668 5663 5658 5671 5684 5683 5701 5706 5733 5730 5752 5756 5749 5750 5779 5786 5784 5785 5789 5789 5791 5794
5543 5542 5541 5540 5540 5540 5543 5558 5574 5572 5570 5579 5593 5597 5614 5621 5629 5631 5642 5638 5641 5642 5642 5653 5636 5661 5704 5704 5716 5712 5721 5719 5738 5757 5748 5743 5748 5772 5781 5782 5784 5786 5787 5789 5787
5532 5529 5526 5524 5523 5522 5519 5533 5537 5535 5551 5564 5573 5587 5595 5595 5598 5614 5623 5614 5617 5620 5631 5627 5647 5710 5682 5692 5693 5702 5705 5711 5736 5751 5749 5749 5750 5770 5777 5780 5783 5786 5787 5784 5783
5519 5515 5510 5506 5503 5506 5510 5515 5512 5513 5522 5546 5564 5570 5579 5581 5592 5596 5600 5601 5602 5608 5616 5613 5682 5668 5672 5674 5682 5696 5703 5708 5716 5730 5745 5738 5733 5753 5777 5782 5785 5789 5787 5786 5781
5510 5506 5500 5492 5491 5496 5498 5498 5497 5496 5496 5546 5552 5563 5571 5572 5577 5592 5597 5589 5591 5593 5598 5618 5655 5657 5660 5665 5688 5686 5717 5708 5713 5708 5705 5732 5701 5748 5764 5767 5777 5778 5780 5783 5782
5501 5494 5488 5478 5480 5488 5485 5486 5487 5479 5498 5550 5538 5555 5548 5550 5565 5572 5585 5578 5575 5581 5575 5630 5632 5635 5641 5685 5678 5707 5702 5707 5711 5708 5705 5709 5706 5761 5760 5758 5766 5775 5783 5785 5784
5491 5486 5480 5488 5477 5481 5480 5478 5474 5463 5480 5509 5517 5517 5524 5531 5538 5547 5567 5571 5576 5569 5578 5614 5624 5629 5650 5669 5672 5694 5691 5693 5705 5706 5684 5721 5710 5742 5746 5758 5767 5778 5785 5787 5787
5488 5482 5477 5475 5475 5468 5468 5468 5459 5467 5497 5505 5517 5524 5529 5529 5535 5540 5554 5557 5547 5540 5562 5594 5591 5618 5637 5643 5664 5671 5672 5658 5660 5672 5688 5728 5714 5737 5762 5770 5773 5777 5783 5787 5786
5491 5487 5486 5488 5476 5465 5462 5455 5458 5461 5499 5515 5515 5520 5522 5532 5538 5549 5540 5543 5560 5560 5550 5547 5558 5608 5636 5639 5648 5657 5668 5668 5652 5675 5697 5726 5708 5746 5775 5780 5785 5787 5787 5786 5782
5493 5503 5495 5486 5477 5469 5466 5462 5444 5478 5498 5502 5510 5495 5493 5504 5512 5533 5538 5541 5554 5543 5528 5536 5557 5603 5605 5630 5641 5653 5653 5699 5686 5707 5701 5733 5747 5768 5779 5781 5784 5780 5780 5776 5770
5492 5498 5500 5487 5478 5470 5463 5473 5486 5501 5499 5500 5492 5486 5485 5504 5505 5506 5515 5515 5529 5536 5531 5534 5530 5566 5595 5626 5638 5649 5679 5660 5681 5664 5678 5715 5733 5757 5769 5773 5783 5779 5774 5770 5767
5500 5511 5504 5489 5480 5472 5463 5477 5492 5501 5499 5490 5488 5485 5482 5491 5500 5499 5507 5510 5525 5530 5533 5530 5523 5561 5575 5607 5622 5637 5653 5672 5690 5694 5687 5696 5734 5794 5778 5784 5783 5782 5779 5771 5764
5504 5508 5506 5496 5474 5472 5471 5481 5486 5492 5503 5496 5492 5490 5483 5482 5493 5505 5511 5510 5515 5517 5514 5521 5516 5543 5560 5603 5630 5646 5656 5667 5670 5675 5701 5713 5732 5785 5788 5790 5790 5786 5782 5775 5766
5506 5513 5508 5500 5479 5476 5475 5479 5488 5488 5491 5487 5491 5495 5489 5485 5468 5464 5480 5486 5502 5501 5502 5499 5522 5537 5554 5581 5610 5613 5653 5669 5680 5701 5693 5701 5728 5779 5783 5785 5788 5783 5780 5771 5764
5502 5498 5503 5497 5489 5475 5474 5473 5476 5483 5481 5486 5488 5495 5484 5477 5497 5495 5469 5486 5498 5498 5498 5489 5500 5522 5542 5572 5558 5593 5635 5670 5678 5681 5698 5720 5740 5754 5767 5776 5778 5777 5774 5767 5762
5499 5493 5495 5485 5483 5478 5473 5473 5475 5480 5481 5481 5479 5488 5486 5485 5497 5495 5493 5496 5499 5492 5497 5483 5489 5510 5530 5541 5539 5556 5593 5662 5682 5700 5694 5722 5742 5753 5762 5767 5768 5768 5768 5761 5757
5488 5483 5483 5475 5486 5485 5473 5475 5473 5478 5472 5475 5471 5475 5481 5478 5483 5489 5493 5500 5500 5499 5481 5486 5497 5516 5530 5551 5546 5544 5589 5638 5695 5708 5716 5728 5752 5763 5761 5760 5760 5758 5761 5756 5754
5480 5475 5468 5472 5486 5484 5473 5469 5469 5469 5475 5477 5477 5467 5474 5476 5482 5491 5495 5498 5505 5509 5508 5502 5502 5511 5540 5551 5533 5557 5619 5644 5698 5721 5728 5719 5748 5754 5745 5748 5751 5757 5758 5755 5753